Weather History for KUES - January, 2013

Change the Weather History Date:

Saturday, January 5, 2013

  Actual Average Record
Temperature  
Mean Temperature 22 °F -  
Max Temperature 33 °F 28 °F 48 °F (1966)
Min Temperature 12 °F 10 °F -14 °F (1979)
Degree Days  
Heating Degree Days 42    
Moisture  
Dew Point 24 °F    
Average Humidity 92    
Maximum Humidity 100    
Minimum Humidity 70    
Precipitation  
Precipitation 0.00 in - - ()
Sea Level Pressure  
Sea Level Pressure 30.04 in    
Wind  
Wind Speed 6 mph (SW)    
Max Wind Speed 14 mph    
Max Gust Speed 20 mph    
Visibility 7 miles    
Events Rain , Snow    
Averages and records for this station are not official NWS values.
T = Trace of Precipitation, MM = Missing Value Source: NWS Daily Summary

Daily Weather History Graph

Daily Weather History Graph

Search for Another Location

Airport or City:

Trip Planner

Search our weather history database for the weather conditions in past years. The results will help you decide how hot, cold, wet, or windy it might be!

Date:

Astronomy

Jan. 05, 2013 Rise Set
Actual Time 7:24 AM CST 4:32 PM CST
Civil Twilight 6:52 AM CST 5:05 PM CST
Nautical Twilight 6:16 AM CST 5:40 PM CST
Astronomical Twilight 5:42 AM CST 6:14 PM CST
Moon 12:25 AM CST (1/5) 11:27 AM CST (1/5)
Length of Visible Light 10h 12m
Length of Day
9h 08m
Last Quarter, 44% of the Moon is Illuminated
Jan 5
Last Quarter
Jan 11
New
Jan 18
First Quarter
Jan 26
Full
Feb 3
Last Quarter

Hourly Weather History & Observations

Time (CST) Temp. Windchill Dew Point Humidity Pressure Visibility Wind Dir Wind Speed Gust Speed Precip Events Conditions
12:15 AM 23.0 °F 15.8 °F 17.6 °F 80% 30.18 in 10.0 mi WSW 5.8 mph - N/A   Clear
12:35 AM 23.0 °F 15.8 °F 17.6 °F 80% 30.18 in 10.0 mi West 5.8 mph - N/A   Clear
12:55 AM 21.2 °F 13.6 °F 17.6 °F 86% 30.17 in 10.0 mi West 5.8 mph - N/A   Clear
1:15 AM 21.2 °F 16.4 °F 17.6 °F 86% 30.17 in 10.0 mi NW 3.5 mph - N/A   Clear
1:35 AM 21.2 °F - 17.6 °F 86% 30.17 in 10.0 mi Calm Calm - N/A   Clear
1:55 AM 19.4 °F - 17.6 °F 93% 30.17 in 10.0 mi Calm Calm - N/A   Clear
2:15 AM 17.6 °F 12.3 °F 15.8 °F 93% 30.18 in 10.0 mi West 3.5 mph - N/A   Clear
2:35 AM 15.8 °F - 14.0 °F 93% 30.18 in 10.0 mi Calm Calm - N/A   Clear
2:55 AM 17.6 °F 8.2 °F 17.6 °F 100% 30.19 in 10.0 mi SSW 6.9 mph - N/A   Clear
3:15 AM 19.4 °F 7.2 °F 17.6 °F 93% 30.21 in 10.0 mi SW 11.5 mph - N/A   Clear
3:35 AM 19.4 °F 12.8 °F 17.6 °F 93% 30.19 in 10.0 mi SW 4.6 mph - N/A   Clear
3:55 AM 19.4 °F - 15.8 °F 86% 30.19 in 10.0 mi Calm Calm - N/A   Clear
4:15 AM 19.4 °F - 17.6 °F 93% 30.18 in 10.0 mi Calm Calm - N/A   Clear
4:35 AM 17.6 °F - 14.0 °F 86% 30.17 in 10.0 mi Calm Calm - N/A   Clear
5:45 AM 12.2 °F - 12.2 °F 100% 30.13 in 7.0 mi Calm Calm - N/A   Clear
6:45 AM 15.8 °F 8.6 °F 15.8 °F 100% 30.14 in 7.0 mi SSW 4.6 mph - N/A   Clear
7:45 AM 15.8 °F 10.2 °F 15.8 °F 100% 30.14 in 5.0 mi SSW 3.5 mph - N/A   Clear
8:45 AM 17.6 °F 12.3 °F 17.6 °F 100% 30.13 in 5.0 mi SSW 3.5 mph - N/A   Clear
9:45 AM 21.2 °F 16.4 °F 19.4 °F 93% 30.12 in 7.0 mi South 3.5 mph - N/A   Clear
10:45 AM 28.4 °F 20.4 °F 21.2 °F 74% 30.10 in 10.0 mi SSW 8.1 mph - N/A   Clear
11:45 AM 30.2 °F 21.3 °F 24.8 °F 80% 30.05 in 10.0 mi SSW 10.4 mph - N/A   Clear
12:45 PM 33.8 °F 24.8 °F 24.8 °F 70% 30.01 in 10.0 mi SSW 12.7 mph - N/A   Scattered Clouds
1:45 PM 33.8 °F 26.4 °F 26.6 °F 75% 29.98 in 10.0 mi SW 9.2 mph - N/A   Scattered Clouds
2:45 PM 33.8 °F 24.3 °F 26.6 °F 75% 29.99 in 10.0 mi SW 13.8 mph - N/A   Overcast
3:45 PM 33.8 °F 25.8 °F 26.6 °F 75% 29.98 in 7.0 mi SSW 10.4 mph - N/A Snow Light Snow
3:53 PM 32.0 °F 23.6 °F 26.6 °F 80% 29.98 in 3.0 mi SSW 10.4 mph - N/A Snow Light Snow
4:25 PM 30.2 °F 23.4 °F 28.4 °F 93% 29.97 in 2.5 mi SSW 6.9 mph - N/A Snow Light Snow
4:45 PM 30.2 °F 23.4 °F 30.2 °F 100% 29.96 in 1.2 mi SSW 6.9 mph - N/A Snow Light Snow
5:10 PM 30.2 °F 24.3 °F 30.2 °F 100% 29.95 in 3.0 mi South 5.8 mph - N/A Snow Light Snow
6:45 PM 32.0 °F 23.6 °F 30.2 °F 93% 29.94 in 1.5 mi SSW 10.4 mph - N/A Snow Light Snow
7:45 PM 32.0 °F 24.8 °F 30.2 °F 93% 29.93 in 2.0 mi SSW 8.1 mph - N/A Snow Light Snow
8:15 PM 32.0 °F 24.2 °F 32.0 °F 100% 29.92 in 5.0 mi SSW 9.2 mph 16.1 mph N/A Rain Light Rain
8:35 PM 32.0 °F 22.1 °F 32.0 °F 100% 29.91 in 3.0 mi SW 13.8 mph 19.6 mph N/A Snow Light Snow
8:45 PM 32.0 °F 23.6 °F 32.0 °F 100% 29.91 in 3.0 mi SW 10.4 mph 19.6 mph N/A Rain Light Rain
8:55 PM 32.0 °F 22.5 °F 32.0 °F 100% 29.91 in 3.0 mi SW 12.7 mph 17.3 mph N/A Rain Light Rain
9:15 PM 32.0 °F 23.6 °F 32.0 °F 100% 29.90 in 3.0 mi SW 10.4 mph 17.3 mph N/A   Light Drizzle
9:35 PM 32.0 °F 23.6 °F 32.0 °F 100% 29.90 in 5.0 mi SW 10.4 mph 16.1 mph N/A   Overcast
9:55 PM 32.0 °F 23.0 °F 32.0 °F 100% 29.90 in 7.0 mi SW 11.5 mph - N/A   Overcast
10:15 PM 32.0 °F 23.6 °F 32.0 °F 100% 29.90 in 7.0 mi SW 10.4 mph 17.3 mph N/A   Overcast
10:35 PM 32.0 °F 23.6 °F 32.0 °F 100% 29.90 in 7.0 mi SW 10.4 mph - N/A   Overcast
10:55 PM 32.0 °F 24.2 °F 32.0 °F 100% 29.89 in 7.0 mi SW 9.2 mph 16.1 mph N/A   Overcast
11:15 PM 32.0 °F 24.2 °F 32.0 °F 100% 29.88 in 7.0 mi SW 9.2 mph - N/A   Overcast
11:35 PM 32.0 °F 23.6 °F 32.0 °F 100% 29.87 in 7.0 mi SW 10.4 mph - N/A   Overcast
11:55 PM 32.0 °F 23.0 °F 32.0 °F 100% 29.86 in 7.0 mi SW 11.5 mph - N/A   Overcast